Regional Weather Roundup
Issued by NWS Little Rock, AR

Home | Current Version | Previous Version | Text Only | Print | Product List | Glossary Off
Versions: 1 2 3 4 5 6 7 8 9 10 11 12 13 14 15 16 17 18 19 20 21 22 23 24 25 26 27 28 29 30 31 32 33 34 35 36 37 38 39 40 41 42 43 44 45 46 47 48 49 50

000
ASUS44 KLZK 271705
RWRLZK

WEATHER ROUNDUP FOR ARKANSAS
NATIONAL WEATHER SERVICE LITTLE ROCK AR
1100 AM CST FRI FEB 27 2015

NOTE: "FAIR" INDICATES FEW OR NO CLOUDS BELOW 12,000 FEET WITH NO
SIGNIFICANT WEATHER AND/OR OBSTRUCTIONS TO VISIBILITY.

ARZ001-003-010-029-271800-
NORTHWEST ARKANSAS

CITY           SKY/WX    TMP DP  RH WIND       PRES   REMARKS
FAYETTEVILLE   CLOUDY    18   4  54 NE6       30.55R WCI  10
FORT SMITH     CLOUDY    23   4  44 NE8       30.59R WCI  14
HARRISON       PTSUNNY   17   4  56 NE7       30.54S WCI   8
BENTONVILLE    CLOUDY    18   1  49 E5        30.56R WCI  11
ROGERS         PTSUNNY   16   4  59 E6        30.55R WCI   7
SILOAM SPGS    CLOUDY    18   0  45 NE6       30.57R WCI   9
HIGHFILL       CLOUDY    18   1  47 VRB7      30.55R WCI   9
SPRINGDALE     CLOUDY    18   1  49 E8        30.56S WCI   7
$$

ARZ004-005-016-271800-
NORTH CENTRAL ARKANSAS

CITY           SKY/WX    TMP DP  RH WIND       PRES   REMARKS
BATESVILLE     SUNNY     25   3  39 NE6       30.62R WCI  18
FLIPPIN        SUNNY     19   1  45 CALM      30.60R
MTN HOME       SUNNY     19   2  47 E6        30.58S WCI  11
$$

ARZ040-041-271800-
WEST CENTRAL ARKANSAS

CITY           SKY/WX    TMP DP  RH WIND       PRES   REMARKS
MENA           CLOUDY    28  10  47 E12       30.49S WCI  18
MOUNT IDA      PTSUNNY   27  11  51 VRB6      30.51R WCI  20
$$

ARZ009-017-025-026-028-271800-
NORTHEAST ARKANSAS

CITY           SKY/WX    TMP DP  RH WIND       PRES   REMARKS
CORNING        FAIR      19   9  63 NE14      30.64F WCI   6
JONESBORO      SUNNY     20  11  68 NE15G22   30.63S WCI   6
NEWPORT        SUNNY     21  10  62 NE13      30.65S WCI   9
WALNUT RIDGE   SUNNY     19   7  58 NE9       30.66R WCI   9
BLYTHEVILLE    MOSUNNY   22  14  71 NE13      30.63F WCI  10
NW BLYTHEVILLE MOSUNNY   21  12  68 NE15G24   30.63F WCI   8
$$

ARZ022-023-033-042-044-271800-
CENTRAL ARKANSAS

CITY           SKY/WX    TMP DP  RH WIND       PRES   REMARKS
LITTLE ROCK    PTSUNNY   27  10  49 E12G20    30.59F WCI  17
N LITTLE ROCK  PTSUNNY   27  13  56 E17       30.59F WCI  14
JACKSONVILLE   SUNNY     26   9  48 NE14G21   30.57F WCI  14
SEARCY         SUNNY     27  11  51 E15       30.61F WCI  15
HOT SPRINGS    PTSUNNY   27  10  49 E13       30.54S WCI  16
RUSSELLVILLE   MOSUNNY   27   7  42 E9G18     30.58S WCI  18
CLINTON        FAIR      27   5  39 NE7       30.60F WCI  19
$$

ARZ036-271800-
EAST ARKANSAS

CITY           SKY/WX    TMP DP  RH WIND       PRES   REMARKS
WEST MEMPHIS   SUNNY     27  16  63 N12       30.60F WCI  17
$$

ARZ050-053-066-070-073-271800-
SOUTHWEST ARKANSAS

CITY           SKY/WX    TMP DP  RH WIND       PRES   REMARKS
ARKADELPHIA    FAIR      30  15  53 NE12      30.57F WCI  20
CAMDEN         PTSUNNY   32  16  51 MISG      30.56F
TEXARKANA      CLOUDY    28  15  58 E8        30.53R WCI  20
EL DORADO      CLOUDY    28  18  66 NE14      30.53F WCI  17
DE QUEEN       CLOUDY    29  11  47 SE10      30.54R WCI  20
$$

ARZ056-057-069-271800-
SOUTHEAST ARKANSAS

CITY           SKY/WX    TMP DP  RH WIND       PRES   REMARKS
PINE BLUFF     MOSUNNY   25  14  63 NE14      30.58S WCI  13
STUTTGART      SUNNY     27  14  59 NE15      30.60F WCI  15
MONTICELLO     PTSUNNY   29  18  63 NE13G22   30.55F WCI  19

$$





USA.gov is the U.S. government's official web portal to all federal, state and local government web resources and services.